GEFSMA_prec_meanprecacc_006.txt.gz
Total_Precipitation_Accumulation
0.02 0.05 0.07 0.12 0.09 0.03 0.05 0.08 0.03 0.02 0.04 0.01 0.00 0.00 0.00 0.00 0.00 0.00 0.01 0.08 0.14 0.13 0.13 0.10 0.07 0.05 0.04 0.03 0.02 0.01 0.01 0.01 0.02 0.03 0.03 0.04 0.04 0.04 0.02 0.01 0.04 0.06 0.05
0.02 0.05 0.04 0.06 0.04 0.05 0.08 0.04 0.03 0.03 0.05 0.01 0.00 0.00 0.00 0.00 0.00 0.00 0.01 0.04 0.11 0.12 0.17 0.18 0.16 0.11 0.08 0.05 0.03 0.02 0.02 0.02 0.04 0.05 0.06 0.04 0.04 0.04 0.02 0.01 0.05 0.08 0.08
0.02 0.05 0.03 0.02 0.03 0.05 0.06 0.06 0.07 0.05 0.07 0.02 0.01 0.00 0.00 0.00 0.00 0.00 0.01 0.01 0.02 0.03 0.09 0.16 0.18 0.13 0.08 0.05 0.04 0.03 0.02 0.01 0.02 0.04 0.05 0.05 0.04 0.02 0.01 0.02 0.04 0.04 0.05
0.01 0.05 0.04 0.02 0.07 0.10 0.07 0.06 0.04 0.04 0.06 0.04 0.03 0.01 0.00 0.00 0.00 0.00 0.00 0.00 0.00 0.00 0.00 0.01 0.03 0.05 0.06 0.06 0.05 0.04 0.03 0.01 0.01 0.01 0.01 0.01 0.02 0.03 0.02 0.02 0.02 0.02 0.03
0.01 0.06 0.06 0.01 0.03 0.09 0.06 0.03 0.04 0.08 0.04 0.03 0.02 0.02 0.00 0.00 0.00 0.00 0.00 0.00 0.00 0.00 0.00 0.00 0.00 0.00 0.01 0.02 0.04 0.03 0.03 0.02 0.01 0.01 0.01 0.00 0.00 0.02 0.03 0.02 0.01 0.02 0.03
0.02 0.04 0.05 0.03 0.02 0.08 0.09 0.04 0.04 0.04 0.03 0.05 0.04 0.02 0.00 0.00 0.00 0.00 0.00 0.00 0.00 0.00 0.00 0.00 0.00 0.00 0.00 0.00 0.01 0.02 0.02 0.02 0.02 0.01 0.01 0.01 0.00 0.01 0.01 0.01 0.02 0.02 0.02
0.03 0.03 0.03 0.07 0.06 0.08 0.09 0.04 0.04 0.02 0.04 0.05 0.07 0.03 0.01 0.00 0.00 0.00 0.00 0.00 0.00 0.00 0.00 0.00 0.00 0.00 0.00 0.00 0.00 0.00 0.01 0.02 0.02 0.01 0.01 0.01 0.00 0.01 0.01 0.00 0.01 0.03 0.02
0.06 0.05 0.04 0.09 0.04 0.04 0.13 0.10 0.07 0.02 0.05 0.04 0.03 0.03 0.01 0.01 0.01 0.00 0.00 0.00 0.00 0.00 0.00 0.00 0.00 0.00 0.00 0.00 0.00 0.00 0.00 0.01 0.02 0.02 0.01 0.01 0.01 0.01 0.01 0.00 0.02 0.05 0.03
0.10 0.09 0.07 0.06 0.04 0.04 0.14 0.16 0.12 0.04 0.04 0.01 0.01 0.01 0.00 0.01 0.01 0.00 0.00 0.00 0.00 0.00 0.00 0.00 0.00 0.00 0.00 0.00 0.00 0.00 0.00 0.00 0.01 0.02 0.01 0.01 0.01 0.01 0.01 0.01 0.04 0.05 0.02
0.16 0.11 0.08 0.05 0.03 0.01 0.03 0.06 0.12 0.10 0.04 0.01 0.01 0.02 0.01 0.01 0.00 0.00 0.00 0.00 0.00 0.00 0.00 0.00 0.00 0.00 0.00 0.00 0.00 0.00 0.00 0.00 0.00 0.01 0.01 0.01 0.02 0.02 0.02 0.02 0.05 0.05 0.04
0.20 0.10 0.08 0.08 0.06 0.03 0.02 0.03 0.10 0.11 0.06 0.02 0.02 0.05 0.05 0.02 0.00 0.00 0.00 0.00 0.00 0.00 0.00 0.00 0.00 0.00 0.00 0.00 0.00 0.00 0.00 0.00 0.00 0.01 0.01 0.01 0.02 0.02 0.02 0.02 0.02 0.03 0.05
0.20 0.10 0.09 0.10 0.15 0.14 0.08 0.04 0.05 0.05 0.06 0.05 0.04 0.05 0.06 0.02 0.00 0.00 0.00 0.00 0.00 0.00 0.00 0.00 0.00 0.00 0.00 0.00 0.00 0.00 0.00 0.00 0.00 0.00 0.01 0.01 0.01 0.02 0.02 0.03 0.01 0.01 0.03
0.21 0.15 0.14 0.15 0.16 0.16 0.17 0.14 0.07 0.03 0.03 0.04 0.07 0.09 0.11 0.08 0.04 0.01 0.00 0.00 0.00 0.00 0.00 0.00 0.00 0.00 0.00 0.00 0.00 0.00 0.00 0.00 0.00 0.00 0.00 0.01 0.01 0.02 0.02 0.04 0.04 0.06 0.11
0.11 0.08 0.10 0.12 0.13 0.13 0.12 0.11 0.06 0.03 0.02 0.02 0.05 0.11 0.14 0.13 0.11 0.05 0.02 0.00 0.00 0.00 0.00 0.00 0.00 0.00 0.00 0.00 0.00 0.00 0.00 0.00 0.00 0.00 0.00 0.00 0.01 0.01 0.02 0.02 0.04 0.09 0.27
0.09 0.05 0.04 0.07 0.10 0.11 0.10 0.07 0.03 0.04 0.02 0.02 0.02 0.05 0.06 0.07 0.08 0.08 0.04 0.01 0.00 0.00 0.00 0.00 0.00 0.00 0.00 0.00 0.00 0.00 0.00 0.00 0.00 0.00 0.00 0.00 0.01 0.01 0.01 0.01 0.01 0.02 0.06
0.14 0.13 0.11 0.11 0.11 0.08 0.07 0.07 0.08 0.09 0.06 0.04 0.02 0.02 0.03 0.06 0.08 0.10 0.11 0.04 0.01 0.00 0.00 0.00 0.00 0.00 0.00 0.00 0.00 0.00 0.00 0.00 0.00 0.00 0.00 0.00 0.00 0.00 0.00 0.00 0.00 0.00 0.01
0.25 0.17 0.12 0.13 0.11 0.08 0.08 0.09 0.12 0.15 0.13 0.10 0.06 0.04 0.03 0.05 0.12 0.15 0.17 0.09 0.03 0.00 0.00 0.00 0.00 0.00 0.00 0.00 0.00 0.00 0.00 0.00 0.00 0.00 0.00 0.00 0.00 0.00 0.00 0.00 0.00 0.00 0.00
0.13 0.11 0.10 0.11 0.10 0.10 0.11 0.16 0.21 0.18 0.13 0.07 0.04 0.03 0.03 0.03 0.08 0.14 0.17 0.12 0.07 0.01 0.00 0.00 0.00 0.00 0.00 0.00 0.00 0.00 0.00 0.00 0.00 0.00 0.00 0.00 0.00 0.00 0.00 0.00 0.00 0.00 0.00
0.05 0.07 0.08 0.09 0.09 0.09 0.10 0.12 0.16 0.15 0.09 0.05 0.03 0.02 0.02 0.03 0.07 0.11 0.14 0.12 0.08 0.02 0.00 0.00 0.00 0.00 0.00 0.00 0.00 0.00 0.00 0.00 0.00 0.00 0.00 0.00 0.00 0.00 0.00 0.00 0.00 0.00 0.00
0.01 0.01 0.02 0.02 0.02 0.03 0.06 0.09 0.11 0.15 0.12 0.06 0.03 0.03 0.03 0.01 0.01 0.04 0.10 0.09 0.07 0.03 0.01 0.01 0.00 0.00 0.00 0.00 0.00 0.00 0.00 0.00 0.00 0.00 0.00 0.00 0.00 0.00 0.00 0.00 0.00 0.00 0.00
0.00 0.00 0.01 0.02 0.03 0.04 0.04 0.08 0.08 0.13 0.13 0.09 0.07 0.08 0.05 0.02 0.02 0.02 0.06 0.10 0.10 0.07 0.05 0.03 0.00 0.00 0.00 0.00 0.00 0.00 0.00 0.00 0.00 0.00 0.00 0.00 0.00 0.00 0.00 0.00 0.00 0.00 0.00
0.00 0.00 0.01 0.03 0.06 0.06 0.09 0.12 0.13 0.16 0.13 0.08 0.06 0.10 0.12 0.10 0.06 0.02 0.02 0.05 0.06 0.08 0.05 0.02 0.01 0.00 0.00 0.00 0.00 0.00 0.00 0.00 0.00 0.00 0.00 0.00 0.00 0.00 0.00 0.00 0.00 0.00 0.00
0.00 0.00 0.01 0.04 0.06 0.09 0.15 0.13 0.16 0.19 0.16 0.11 0.06 0.06 0.09 0.11 0.15 0.12 0.06 0.04 0.04 0.08 0.11 0.06 0.02 0.00 0.00 0.00 0.00 0.00 0.00 0.00 0.00 0.00 0.00 0.00 0.00 0.00 0.00 0.00 0.00 0.00 0.00
0.00 0.00 0.01 0.02 0.04 0.11 0.14 0.12 0.19 0.21 0.20 0.19 0.13 0.08 0.05 0.05 0.07 0.12 0.12 0.10 0.10 0.13 0.17 0.10 0.05 0.02 0.00 0.00 0.00 0.00 0.00 0.00 0.00 0.00 0.00 0.00 0.00 0.00 0.00 0.00 0.00 0.00 0.00
0.01 0.00 0.00 0.01 0.04 0.07 0.09 0.08 0.11 0.18 0.19 0.16 0.12 0.08 0.04 0.03 0.03 0.04 0.07 0.10 0.10 0.10 0.16 0.14 0.10 0.05 0.02 0.02 0.00 0.00 0.00 0.00 0.00 0.00 0.00 0.00 0.00 0.00 0.00 0.00 0.00 0.00 0.00
0.05 0.01 0.02 0.02 0.04 0.04 0.06 0.03 0.02 0.05 0.10 0.13 0.11 0.07 0.03 0.02 0.01 0.01 0.02 0.04 0.05 0.07 0.08 0.05 0.05 0.04 0.03 0.03 0.01 0.00 0.00 0.00 0.00 0.00 0.00 0.00 0.00 0.00 0.00 0.00 0.00 0.00 0.00

GEFSMA_prec_meanprecacc_012.txt.gz
Total_Precipitation_Accumulation
0.02 0.06 0.07 0.13 0.10 0.03 0.05 0.08 0.03 0.03 0.04 0.01 0.00 0.00 0.00 0.00 0.00 0.00 0.02 0.16 0.28 0.26 0.21 0.16 0.10 0.07 0.06 0.05 0.04 0.03 0.02 0.02 0.03 0.03 0.04 0.04 0.04 0.04 0.02 0.01 0.05 0.07 0.06
0.02 0.06 0.05 0.06 0.04 0.05 0.08 0.04 0.03 0.04 0.05 0.01 0.00 0.00 0.00 0.00 0.00 0.00 0.01 0.08 0.21 0.29 0.35 0.32 0.25 0.19 0.13 0.09 0.06 0.04 0.02 0.02 0.04 0.05 0.06 0.05 0.04 0.04 0.03 0.02 0.06 0.09 0.09
0.03 0.06 0.04 0.03 0.04 0.07 0.07 0.07 0.09 0.06 0.07 0.02 0.01 0.00 0.00 0.00 0.00 0.00 0.01 0.01 0.04 0.12 0.26 0.35 0.37 0.31 0.19 0.11 0.07 0.04 0.02 0.02 0.03 0.04 0.05 0.05 0.04 0.03 0.03 0.03 0.06 0.06 0.06
0.02 0.06 0.05 0.04 0.10 0.13 0.10 0.08 0.05 0.05 0.07 0.04 0.03 0.01 0.00 0.00 0.00 0.00 0.00 0.00 0.00 0.00 0.02 0.05 0.07 0.12 0.16 0.16 0.11 0.06 0.04 0.02 0.01 0.02 0.02 0.02 0.02 0.03 0.03 0.03 0.03 0.03 0.04
0.03 0.07 0.08 0.03 0.05 0.12 0.10 0.07 0.05 0.09 0.05 0.03 0.02 0.02 0.00 0.00 0.00 0.00 0.00 0.00 0.00 0.00 0.00 0.00 0.00 0.01 0.02 0.06 0.11 0.09 0.07 0.04 0.02 0.02 0.01 0.01 0.01 0.02 0.03 0.02 0.01 0.03 0.04
0.06 0.07 0.08 0.05 0.04 0.10 0.13 0.08 0.08 0.06 0.05 0.05 0.04 0.02 0.00 0.00 0.00 0.00 0.00 0.00 0.00 0.00 0.00 0.00 0.00 0.00 0.00 0.01 0.02 0.05 0.07 0.06 0.04 0.03 0.02 0.01 0.00 0.01 0.02 0.02 0.02 0.03 0.03
0.12 0.10 0.09 0.12 0.08 0.09 0.13 0.11 0.09 0.06 0.07 0.05 0.07 0.03 0.01 0.00 0.00 0.00 0.00 0.00 0.00 0.00 0.00 0.00 0.00 0.00 0.00 0.00 0.00 0.01 0.03 0.04 0.03 0.03 0.02 0.02 0.01 0.01 0.01 0.00 0.02 0.03 0.02
0.21 0.15 0.13 0.19 0.10 0.06 0.18 0.17 0.11 0.06 0.07 0.04 0.03 0.03 0.01 0.01 0.01 0.00 0.00 0.00 0.00 0.00 0.00 0.00 0.00 0.00 0.00 0.00 0.00 0.00 0.00 0.02 0.03 0.03 0.02 0.02 0.01 0.02 0.01 0.01 0.03 0.05 0.03
0.32 0.24 0.19 0.19 0.12 0.07 0.17 0.20 0.16 0.07 0.06 0.02 0.01 0.01 0.00 0.01 0.01 0.00 0.00 0.00 0.00 0.00 0.00 0.00 0.00 0.00 0.00 0.00 0.00 0.00 0.00 0.00 0.02 0.03 0.03 0.02 0.02 0.02 0.01 0.01 0.05 0.06 0.03
0.40 0.33 0.25 0.20 0.12 0.05 0.06 0.11 0.22 0.17 0.08 0.02 0.02 0.02 0.01 0.01 0.00 0.00 0.00 0.00 0.00 0.00 0.00 0.00 0.00 0.00 0.00 0.00 0.00 0.00 0.00 0.00 0.01 0.02 0.03 0.02 0.03 0.03 0.02 0.03 0.06 0.06 0.04
0.43 0.33 0.27 0.22 0.16 0.10 0.08 0.11 0.21 0.22 0.13 0.06 0.04 0.05 0.05 0.02 0.00 0.00 0.00 0.00 0.00 0.00 0.00 0.00 0.00 0.00 0.00 0.00 0.00 0.00 0.00 0.00 0.00 0.01 0.02 0.03 0.04 0.04 0.03 0.03 0.04 0.04 0.06
0.45 0.33 0.27 0.25 0.27 0.22 0.16 0.13 0.16 0.15 0.14 0.13 0.10 0.08 0.07 0.02 0.00 0.00 0.00 0.00 0.00 0.00 0.00 0.00 0.00 0.00 0.00 0.00 0.00 0.00 0.00 0.00 0.00 0.00 0.01 0.02 0.02 0.03 0.03 0.04 0.02 0.02 0.04
0.48 0.41 0.34 0.31 0.29 0.25 0.26 0.25 0.17 0.11 0.09 0.09 0.12 0.13 0.15 0.12 0.06 0.02 0.00 0.00 0.00 0.00 0.00 0.00 0.00 0.00 0.00 0.00 0.00 0.00 0.00 0.00 0.00 0.00 0.01 0.01 0.02 0.02 0.03 0.06 0.07 0.09 0.16
0.31 0.31 0.31 0.29 0.28 0.24 0.21 0.21 0.17 0.13 0.10 0.08 0.11 0.18 0.22 0.24 0.19 0.08 0.03 0.01 0.00 0.00 0.00 0.00 0.00 0.00 0.00 0.00 0.00 0.00 0.00 0.00 0.00 0.00 0.00 0.01 0.01 0.02 0.02 0.04 0.08 0.14 0.34
0.18 0.16 0.17 0.20 0.21 0.22 0.22 0.18 0.14 0.12 0.10 0.08 0.08 0.11 0.13 0.18 0.19 0.14 0.07 0.02 0.01 0.00 0.00 0.00 0.00 0.00 0.00 0.00 0.00 0.00 0.00 0.00 0.00 0.00 0.00 0.00 0.01 0.01 0.01 0.02 0.02 0.04 0.09
0.17 0.18 0.16 0.17 0.18 0.15 0.14 0.14 0.16 0.16 0.11 0.07 0.05 0.05 0.06 0.11 0.15 0.16 0.15 0.06 0.02 0.01 0.00 0.00 0.00 0.00 0.00 0.00 0.00 0.00 0.00 0.00 0.00 0.00 0.00 0.00 0.01 0.00 0.00 0.01 0.01 0.00 0.01
0.27 0.19 0.15 0.18 0.16 0.14 0.15 0.16 0.19 0.22 0.18 0.14 0.09 0.06 0.05 0.07 0.15 0.18 0.20 0.11 0.05 0.02 0.01 0.01 0.00 0.00 0.00 0.00 0.00 0.00 0.00 0.00 0.00 0.00 0.00 0.00 0.01 0.01 0.00 0.00 0.00 0.00 0.00
0.14 0.12 0.12 0.14 0.14 0.16 0.20 0.25 0.29 0.25 0.19 0.11 0.08 0.07 0.06 0.06 0.10 0.16 0.18 0.14 0.10 0.05 0.03 0.02 0.01 0.00 0.00 0.00 0.00 0.00 0.00 0.00 0.00 0.00 0.00 0.00 0.01 0.01 0.01 0.00 0.00 0.00 0.00
0.08 0.09 0.11 0.12 0.13 0.15 0.19 0.21 0.25 0.23 0.15 0.09 0.06 0.05 0.08 0.09 0.10 0.13 0.16 0.14 0.11 0.06 0.03 0.02 0.01 0.00 0.00 0.00 0.00 0.00 0.00 0.00 0.00 0.00 0.00 0.00 0.00 0.01 0.01 0.00 0.00 0.00 0.00
0.02 0.03 0.04 0.05 0.06 0.08 0.12 0.16 0.18 0.23 0.18 0.11 0.07 0.06 0.08 0.06 0.04 0.07 0.12 0.12 0.11 0.08 0.05 0.03 0.01 0.00 0.00 0.00 0.00 0.00 0.00 0.00 0.00 0.00 0.00 0.00 0.00 0.00 0.01 0.00 0.00 0.00 0.00
0.01 0.01 0.02 0.03 0.05 0.06 0.08 0.13 0.13 0.19 0.19 0.15 0.11 0.11 0.08 0.06 0.06 0.06 0.09 0.14 0.15 0.12 0.09 0.05 0.01 0.01 0.00 0.00 0.00 0.00 0.00 0.00 0.00 0.00 0.00 0.00 0.00 0.00 0.00 0.00 0.00 0.00 0.00
0.00 0.01 0.01 0.04 0.08 0.08 0.11 0.15 0.16 0.20 0.18 0.13 0.09 0.12 0.17 0.15 0.09 0.04 0.04 0.09 0.12 0.13 0.10 0.06 0.02 0.00 0.00 0.00 0.00 0.00 0.00 0.00 0.00 0.00 0.00 0.00 0.00 0.00 0.00 0.00 0.00 0.00 0.00
0.00 0.00 0.02 0.05 0.06 0.10 0.16 0.15 0.20 0.22 0.19 0.14 0.09 0.10 0.14 0.17 0.21 0.16 0.08 0.06 0.07 0.13 0.18 0.14 0.07 0.02 0.01 0.00 0.00 0.00 0.00 0.00 0.00 0.00 0.00 0.00 0.00 0.00 0.00 0.00 0.00 0.00 0.00
0.01 0.01 0.01 0.02 0.04 0.11 0.14 0.13 0.21 0.24 0.23 0.22 0.17 0.14 0.13 0.13 0.15 0.21 0.21 0.15 0.13 0.15 0.23 0.17 0.11 0.10 0.06 0.03 0.01 0.00 0.00 0.00 0.00 0.00 0.00 0.00 0.00 0.00 0.00 0.00 0.00 0.00 0.00
0.05 0.03 0.02 0.01 0.04 0.08 0.09 0.08 0.12 0.19 0.21 0.19 0.17 0.15 0.12 0.10 0.13 0.15 0.18 0.18 0.15 0.15 0.27 0.29 0.27 0.20 0.12 0.06 0.02 0.00 0.00 0.00 0.00 0.00 0.00 0.00 0.00 0.00 0.00 0.00 0.00 0.00 0.00
0.11 0.05 0.03 0.02 0.04 0.04 0.06 0.04 0.03 0.06 0.12 0.17 0.18 0.15 0.13 0.10 0.09 0.08 0.08 0.10 0.11 0.14 0.16 0.16 0.17 0.15 0.11 0.07 0.02 0.01 0.00 0.00 0.00 0.00 0.00 0.00 0.00 0.00 0.00 0.00 0.00 0.00 0.00

GEFSMA_prec_meanprecacc_018.txt.gz
Total_Precipitation_Accumulation
0.02 0.06 0.07 0.14 0.10 0.03 0.05 0.08 0.03 0.03 0.04 0.01 0.00 0.00 0.00 0.00 0.01 0.05 0.10 0.23 0.42 0.47 0.35 0.24 0.16 0.11 0.10 0.08 0.07 0.05 0.03 0.03 0.03 0.03 0.04 0.04 0.04 0.04 0.02 0.01 0.05 0.07 0.07
0.02 0.06 0.05 0.07 0.05 0.05 0.08 0.04 0.04 0.04 0.05 0.01 0.00 0.00 0.00 0.00 0.00 0.03 0.10 0.19 0.36 0.54 0.61 0.47 0.36 0.27 0.19 0.13 0.09 0.07 0.05 0.04 0.04 0.06 0.07 0.05 0.05 0.04 0.03 0.02 0.06 0.10 0.10
0.03 0.06 0.04 0.03 0.05 0.07 0.07 0.07 0.09 0.07 0.07 0.02 0.01 0.00 0.00 0.00 0.00 0.00 0.03 0.09 0.15 0.24 0.41 0.49 0.51 0.45 0.29 0.16 0.10 0.06 0.04 0.03 0.04 0.05 0.06 0.05 0.04 0.03 0.03 0.03 0.06 0.06 0.07
0.02 0.06 0.06 0.04 0.11 0.14 0.11 0.09 0.06 0.05 0.07 0.04 0.03 0.01 0.00 0.00 0.00 0.00 0.01 0.01 0.01 0.02 0.04 0.08 0.11 0.20 0.27 0.25 0.19 0.10 0.06 0.04 0.03 0.03 0.03 0.02 0.02 0.03 0.03 0.03 0.03 0.04 0.05
0.03 0.08 0.09 0.05 0.07 0.16 0.16 0.11 0.07 0.10 0.05 0.05 0.03 0.02 0.00 0.00 0.00 0.00 0.00 0.00 0.00 0.00 0.00 0.00 0.00 0.01 0.04 0.11 0.18 0.17 0.12 0.07 0.04 0.03 0.02 0.01 0.01 0.03 0.03 0.02 0.02 0.03 0.04
0.07 0.09 0.11 0.07 0.06 0.16 0.23 0.16 0.15 0.11 0.09 0.09 0.05 0.02 0.00 0.00 0.00 0.00 0.00 0.00 0.00 0.00 0.00 0.00 0.00 0.00 0.00 0.01 0.03 0.08 0.11 0.08 0.06 0.04 0.03 0.01 0.01 0.01 0.02 0.02 0.03 0.03 0.03
0.15 0.14 0.13 0.15 0.14 0.17 0.28 0.28 0.24 0.17 0.11 0.07 0.09 0.05 0.01 0.00 0.00 0.00 0.00 0.00 0.00 0.00 0.00 0.00 0.00 0.00 0.00 0.00 0.00 0.01 0.04 0.05 0.05 0.04 0.03 0.02 0.01 0.02 0.02 0.01 0.02 0.03 0.03
0.30 0.21 0.18 0.24 0.19 0.19 0.36 0.35 0.27 0.17 0.11 0.05 0.06 0.09 0.04 0.02 0.01 0.00 0.00 0.00 0.00 0.00 0.00 0.00 0.00 0.00 0.00 0.00 0.00 0.00 0.00 0.02 0.04 0.04 0.03 0.02 0.02 0.02 0.01 0.01 0.03 0.06 0.03
0.50 0.38 0.30 0.30 0.25 0.22 0.32 0.36 0.30 0.18 0.12 0.03 0.02 0.04 0.05 0.05 0.02 0.00 0.00 0.00 0.00 0.00 0.00 0.00 0.00 0.00 0.00 0.00 0.00 0.00 0.00 0.00 0.02 0.04 0.03 0.02 0.02 0.02 0.02 0.02 0.05 0.06 0.03
0.59 0.53 0.44 0.39 0.29 0.18 0.19 0.26 0.35 0.27 0.19 0.08 0.03 0.02 0.02 0.03 0.02 0.01 0.00 0.00 0.00 0.00 0.00 0.00 0.00 0.00 0.00 0.00 0.00 0.00 0.00 0.00 0.01 0.02 0.03 0.04 0.04 0.03 0.03 0.03 0.06 0.07 0.05
0.51 0.43 0.42 0.41 0.31 0.21 0.19 0.22 0.32 0.34 0.23 0.16 0.08 0.07 0.05 0.03 0.01 0.01 0.02 0.01 0.00 0.00 0.00 0.00 0.00 0.00 0.00 0.00 0.00 0.00 0.00 0.00 0.00 0.01 0.02 0.03 0.05 0.05 0.04 0.04 0.04 0.05 0.07
0.48 0.38 0.34 0.37 0.41 0.35 0.27 0.23 0.27 0.29 0.27 0.26 0.20 0.13 0.10 0.05 0.02 0.01 0.03 0.03 0.01 0.00 0.00 0.00 0.00 0.00 0.00 0.00 0.00 0.00 0.00 0.00 0.00 0.01 0.01 0.02 0.03 0.04 0.04 0.05 0.03 0.03 0.05
0.49 0.45 0.40 0.40 0.42 0.41 0.41 0.38 0.30 0.24 0.21 0.20 0.23 0.21 0.21 0.18 0.08 0.03 0.02 0.02 0.02 0.00 0.00 0.00 0.00 0.00 0.00 0.00 0.00 0.00 0.00 0.00 0.00 0.00 0.01 0.01 0.02 0.02 0.04 0.08 0.10 0.12 0.19
0.34 0.36 0.39 0.41 0.43 0.43 0.42 0.41 0.33 0.26 0.21 0.17 0.20 0.25 0.29 0.31 0.22 0.10 0.05 0.04 0.04 0.02 0.00 0.00 0.00 0.00 0.00 0.00 0.00 0.00 0.00 0.00 0.00 0.00 0.00 0.01 0.01 0.02 0.03 0.06 0.10 0.17 0.37
0.21 0.20 0.24 0.32 0.38 0.42 0.44 0.40 0.33 0.27 0.21 0.16 0.16 0.17 0.18 0.22 0.23 0.16 0.08 0.05 0.07 0.07 0.07 0.03 0.00 0.00 0.00 0.00 0.00 0.00 0.00 0.00 0.00 0.00 0.00 0.00 0.01 0.01 0.01 0.02 0.03 0.04 0.09
0.19 0.21 0.22 0.25 0.30 0.34 0.41 0.42 0.40 0.35 0.25 0.17 0.11 0.09 0.10 0.14 0.19 0.19 0.17 0.08 0.04 0.07 0.10 0.05 0.00 0.00 0.00 0.00 0.00 0.00 0.00 0.00 0.00 0.00 0.00 0.00 0.01 0.01 0.01 0.01 0.01 0.01 0.01
0.28 0.23 0.20 0.26 0.26 0.25 0.29 0.36 0.43 0.44 0.35 0.27 0.16 0.11 0.11 0.11 0.20 0.23 0.23 0.14 0.08 0.06 0.09 0.05 0.00 0.00 0.00 0.00 0.00 0.00 0.00 0.00 0.00 0.00 0.00 0.00 0.01 0.01 0.00 0.00 0.00 0.00 0.00
0.15 0.15 0.16 0.19 0.21 0.24 0.28 0.38 0.44 0.43 0.37 0.27 0.20 0.14 0.13 0.12 0.16 0.20 0.22 0.17 0.12 0.07 0.07 0.07 0.01 0.00 0.00 0.00 0.00 0.00 0.00 0.00 0.00 0.00 0.00 0.00 0.01 0.01 0.01 0.00 0.00 0.00 0.00
0.08 0.10 0.13 0.16 0.18 0.21 0.28 0.33 0.38 0.37 0.28 0.21 0.16 0.12 0.14 0.15 0.14 0.17 0.19 0.17 0.13 0.08 0.05 0.06 0.03 0.01 0.00 0.00 0.00 0.00 0.00 0.00 0.00 0.00 0.00 0.00 0.00 0.01 0.01 0.00 0.00 0.00 0.00
0.03 0.04 0.06 0.07 0.10 0.13 0.18 0.21 0.25 0.32 0.28 0.19 0.13 0.11 0.12 0.10 0.08 0.11 0.15 0.15 0.15 0.11 0.07 0.05 0.03 0.01 0.00 0.00 0.00 0.00 0.00 0.00 0.00 0.00 0.00 0.00 0.00 0.00 0.01 0.00 0.00 0.00 0.00
0.01 0.02 0.05 0.06 0.08 0.10 0.11 0.16 0.18 0.24 0.26 0.22 0.17 0.15 0.11 0.10 0.09 0.09 0.11 0.17 0.19 0.16 0.12 0.07 0.03 0.01 0.00 0.00 0.00 0.00 0.00 0.00 0.00 0.00 0.00 0.00 0.00 0.00 0.00 0.00 0.00 0.00 0.00
0.01 0.01 0.02 0.05 0.09 0.09 0.13 0.17 0.20 0.24 0.23 0.18 0.14 0.16 0.20 0.17 0.11 0.06 0.07 0.12 0.15 0.17 0.14 0.09 0.05 0.02 0.01 0.01 0.00 0.00 0.00 0.00 0.00 0.00 0.00 0.00 0.00 0.00 0.00 0.00 0.00 0.00 0.00
0.01 0.01 0.02 0.05 0.08 0.11 0.16 0.15 0.21 0.25 0.22 0.17 0.12 0.13 0.17 0.20 0.24 0.20 0.13 0.09 0.09 0.15 0.21 0.19 0.13 0.08 0.07 0.04 0.01 0.00 0.00 0.00 0.00 0.00 0.00 0.00 0.00 0.00 0.00 0.00 0.00 0.00 0.00
0.03 0.03 0.02 0.03 0.06 0.13 0.15 0.13 0.22 0.27 0.26 0.25 0.20 0.17 0.17 0.17 0.20 0.29 0.31 0.23 0.17 0.18 0.27 0.20 0.16 0.22 0.18 0.09 0.03 0.01 0.00 0.00 0.00 0.00 0.00 0.00 0.00 0.00 0.00 0.00 0.00 0.00 0.00
0.11 0.08 0.05 0.04 0.07 0.11 0.10 0.09 0.13 0.22 0.24 0.22 0.19 0.18 0.16 0.16 0.20 0.26 0.28 0.26 0.23 0.21 0.37 0.39 0.37 0.31 0.21 0.10 0.03 0.01 0.00 0.00 0.00 0.00 0.00 0.00 0.00 0.00 0.00 0.00 0.00 0.00 0.00
0.21 0.15 0.10 0.07 0.08 0.07 0.08 0.04 0.03 0.08 0.14 0.20 0.21 0.18 0.19 0.18 0.19 0.18 0.16 0.18 0.19 0.23 0.25 0.24 0.26 0.24 0.18 0.12 0.04 0.01 0.01 0.00 0.00 0.00 0.00 0.00 0.00 0.00 0.00 0.00 0.00 0.00 0.00

GEFSMA_prec_meanprecacc_024.txt.gz
Total_Precipitation_Accumulation
0.03 0.06 0.07 0.14 0.10 0.03 0.05 0.08 0.03 0.03 0.04 0.01 0.01 0.00 0.00 0.02 0.06 0.10 0.13 0.25 0.44 0.52 0.39 0.27 0.18 0.13 0.12 0.10 0.09 0.07 0.05 0.05 0.04 0.04 0.05 0.05 0.04 0.04 0.02 0.01 0.05 0.07 0.07
0.02 0.06 0.05 0.07 0.05 0.05 0.08 0.04 0.04 0.05 0.05 0.01 0.00 0.00 0.00 0.01 0.03 0.09 0.17 0.24 0.41 0.62 0.69 0.54 0.42 0.32 0.22 0.16 0.12 0.09 0.06 0.05 0.06 0.06 0.07 0.05 0.05 0.04 0.03 0.02 0.06 0.10 0.11
0.03 0.06 0.04 0.03 0.05 0.07 0.07 0.07 0.09 0.07 0.07 0.02 0.01 0.00 0.00 0.02 0.02 0.03 0.08 0.18 0.24 0.31 0.46 0.56 0.60 0.53 0.36 0.21 0.13 0.08 0.05 0.04 0.05 0.06 0.06 0.05 0.04 0.03 0.03 0.04 0.06 0.07 0.07
0.02 0.07 0.06 0.04 0.11 0.14 0.11 0.09 0.06 0.05 0.07 0.04 0.03 0.01 0.00 0.01 0.02 0.02 0.02 0.03 0.04 0.04 0.05 0.10 0.14 0.25 0.33 0.31 0.23 0.13 0.07 0.04 0.03 0.03 0.03 0.02 0.02 0.03 0.04 0.03 0.03 0.04 0.05
0.04 0.08 0.09 0.05 0.07 0.16 0.16 0.11 0.08 0.10 0.06 0.05 0.03 0.02 0.00 0.00 0.00 0.00 0.00 0.00 0.00 0.00 0.00 0.00 0.00 0.02 0.05 0.13 0.21 0.20 0.15 0.09 0.05 0.03 0.02 0.01 0.01 0.03 0.03 0.02 0.02 0.04 0.05
0.08 0.10 0.12 0.07 0.06 0.17 0.24 0.17 0.17 0.15 0.13 0.10 0.07 0.04 0.01 0.00 0.00 0.00 0.00 0.00 0.00 0.00 0.00 0.00 0.00 0.00 0.00 0.01 0.04 0.09 0.13 0.10 0.07 0.05 0.04 0.02 0.01 0.02 0.02 0.02 0.03 0.03 0.03
0.18 0.16 0.13 0.16 0.16 0.21 0.31 0.31 0.33 0.29 0.19 0.10 0.18 0.16 0.06 0.01 0.00 0.00 0.00 0.00 0.00 0.00 0.00 0.00 0.00 0.00 0.00 0.00 0.00 0.01 0.04 0.06 0.06 0.04 0.04 0.03 0.01 0.02 0.02 0.01 0.02 0.03 0.03
0.35 0.25 0.20 0.25 0.23 0.30 0.49 0.47 0.43 0.36 0.23 0.11 0.21 0.32 0.18 0.08 0.03 0.00 0.00 0.00 0.00 0.00 0.00 0.00 0.00 0.00 0.00 0.00 0.00 0.00 0.00 0.02 0.05 0.05 0.03 0.03 0.02 0.02 0.02 0.01 0.04 0.06 0.03
0.58 0.45 0.36 0.35 0.32 0.33 0.48 0.54 0.50 0.42 0.31 0.16 0.12 0.21 0.28 0.24 0.10 0.01 0.00 0.00 0.00 0.00 0.00 0.00 0.00 0.00 0.00 0.00 0.00 0.00 0.00 0.00 0.02 0.04 0.04 0.03 0.03 0.03 0.02 0.02 0.05 0.07 0.03
0.68 0.63 0.53 0.49 0.38 0.30 0.33 0.41 0.49 0.46 0.44 0.31 0.19 0.13 0.11 0.14 0.14 0.07 0.02 0.00 0.00 0.00 0.00 0.00 0.00 0.00 0.00 0.00 0.00 0.00 0.00 0.00 0.01 0.02 0.04 0.04 0.04 0.04 0.03 0.03 0.07 0.07 0.05
0.61 0.54 0.51 0.52 0.43 0.32 0.30 0.37 0.49 0.54 0.45 0.39 0.30 0.27 0.21 0.13 0.06 0.11 0.12 0.05 0.01 0.00 0.00 0.00 0.00 0.00 0.00 0.00 0.00 0.00 0.00 0.00 0.00 0.01 0.02 0.04 0.05 0.05 0.05 0.05 0.05 0.06 0.07
0.60 0.49 0.48 0.51 0.55 0.48 0.39 0.36 0.42 0.49 0.50 0.53 0.45 0.34 0.32 0.23 0.11 0.10 0.15 0.14 0.08 0.02 0.00 0.00 0.00 0.00 0.00 0.00 0.00 0.00 0.00 0.00 0.00 0.01 0.01 0.02 0.03 0.04 0.05 0.07 0.05 0.05 0.06
0.62 0.59 0.54 0.56 0.58 0.54 0.53 0.52 0.46 0.43 0.44 0.47 0.49 0.45 0.43 0.33 0.13 0.09 0.11 0.13 0.16 0.08 0.02 0.00 0.00 0.00 0.00 0.00 0.00 0.00 0.00 0.00 0.00 0.00 0.01 0.01 0.02 0.03 0.05 0.10 0.12 0.14 0.21
0.45 0.46 0.50 0.54 0.57 0.57 0.56 0.56 0.51 0.46 0.41 0.39 0.44 0.50 0.55 0.50 0.31 0.18 0.16 0.20 0.23 0.20 0.12 0.04 0.01 0.00 0.00 0.00 0.00 0.00 0.00 0.00 0.00 0.00 0.00 0.01 0.01 0.02 0.03 0.06 0.11 0.18 0.38
0.27 0.26 0.32 0.41 0.47 0.51 0.54 0.55 0.52 0.50 0.45 0.40 0.41 0.43 0.42 0.41 0.36 0.25 0.15 0.15 0.24 0.26 0.26 0.18 0.06 0.00 0.00 0.00 0.00 0.00 0.00 0.00 0.00 0.00 0.00 0.00 0.01 0.01 0.02 0.02 0.03 0.04 0.09
0.23 0.26 0.29 0.32 0.37 0.44 0.52 0.55 0.57 0.55 0.48 0.40 0.35 0.34 0.33 0.32 0.32 0.29 0.24 0.16 0.16 0.23 0.28 0.24 0.11 0.01 0.00 0.00 0.00 0.00 0.00 0.00 0.00 0.00 0.00 0.00 0.01 0.01 0.01 0.01 0.01 0.01 0.01
0.30 0.25 0.26 0.34 0.34 0.35 0.42 0.51 0.61 0.66 0.58 0.50 0.39 0.33 0.35 0.33 0.39 0.39 0.37 0.28 0.21 0.21 0.25 0.22 0.10 0.03 0.01 0.00 0.00 0.00 0.00 0.00 0.00 0.00 0.00 0.00 0.01 0.01 0.00 0.00 0.00 0.00 0.00
0.16 0.16 0.20 0.26 0.29 0.34 0.40 0.49 0.58 0.63 0.61 0.52 0.44 0.36 0.33 0.31 0.34 0.36 0.39 0.33 0.27 0.21 0.24 0.25 0.12 0.05 0.02 0.00 0.00 0.00 0.00 0.00 0.00 0.00 0.00 0.00 0.01 0.01 0.01 0.00 0.00 0.00 0.00
0.09 0.12 0.17 0.22 0.25 0.29 0.37 0.42 0.46 0.47 0.41 0.37 0.34 0.29 0.28 0.27 0.28 0.31 0.33 0.30 0.25 0.18 0.20 0.25 0.16 0.06 0.02 0.00 0.00 0.00 0.00 0.00 0.00 0.00 0.00 0.00 0.00 0.01 0.01 0.00 0.00 0.00 0.00
0.03 0.05 0.09 0.11 0.16 0.20 0.24 0.28 0.31 0.36 0.32 0.25 0.20 0.20 0.22 0.19 0.17 0.20 0.25 0.25 0.27 0.24 0.24 0.25 0.19 0.07 0.03 0.01 0.00 0.00 0.00 0.00 0.00 0.00 0.00 0.00 0.00 0.00 0.01 0.00 0.00 0.00 0.00
0.01 0.03 0.08 0.11 0.14 0.16 0.18 0.24 0.24 0.29 0.30 0.26 0.22 0.19 0.16 0.15 0.15 0.15 0.18 0.25 0.30 0.30 0.29 0.27 0.22 0.11 0.04 0.01 0.01 0.00 0.00 0.00 0.00 0.00 0.00 0.00 0.00 0.00 0.00 0.00 0.00 0.00 0.00
0.02 0.03 0.05 0.09 0.15 0.13 0.20 0.24 0.25 0.28 0.27 0.22 0.18 0.21 0.24 0.21 0.13 0.10 0.10 0.16 0.22 0.27 0.28 0.28 0.27 0.18 0.08 0.03 0.01 0.00 0.00 0.00 0.00 0.00 0.00 0.00 0.00 0.00 0.00 0.00 0.00 0.00 0.00
0.04 0.05 0.04 0.09 0.15 0.20 0.24 0.19 0.23 0.27 0.24 0.19 0.14 0.16 0.21 0.22 0.26 0.22 0.16 0.12 0.11 0.18 0.28 0.34 0.32 0.28 0.29 0.17 0.06 0.02 0.01 0.01 0.00 0.00 0.00 0.00 0.00 0.00 0.00 0.00 0.00 0.00 0.00
0.09 0.08 0.08 0.10 0.15 0.21 0.20 0.15 0.24 0.28 0.27 0.27 0.21 0.18 0.19 0.19 0.21 0.31 0.36 0.29 0.23 0.24 0.35 0.25 0.24 0.38 0.40 0.28 0.15 0.08 0.04 0.02 0.02 0.01 0.00 0.00 0.00 0.00 0.00 0.00 0.00 0.00 0.00
0.19 0.14 0.11 0.12 0.16 0.18 0.16 0.11 0.14 0.23 0.25 0.24 0.21 0.19 0.19 0.20 0.25 0.31 0.35 0.33 0.31 0.31 0.52 0.54 0.49 0.45 0.37 0.27 0.18 0.13 0.07 0.03 0.02 0.01 0.00 0.00 0.00 0.00 0.00 0.00 0.00 0.00 0.00
0.31 0.25 0.18 0.14 0.15 0.15 0.16 0.07 0.04 0.10 0.17 0.25 0.26 0.22 0.25 0.22 0.25 0.23 0.21 0.26 0.27 0.33 0.39 0.39 0.37 0.33 0.26 0.20 0.13 0.10 0.07 0.05 0.03 0.02 0.00 0.00 0.00 0.00 0.00 0.00 0.00 0.00 0.00

GEFSMA_prec_meanprecacc_030.txt.gz
Total_Precipitation_Accumulation
0.04 0.07 0.08 0.14 0.10 0.04 0.05 0.08 0.03 0.03 0.04 0.01 0.02 0.03 0.02 0.02 0.06 0.10 0.13 0.27 0.48 0.55 0.41 0.28 0.19 0.14 0.12 0.11 0.10 0.08 0.06 0.05 0.05 0.05 0.05 0.05 0.05 0.04 0.02 0.01 0.05 0.07 0.07
0.03 0.07 0.06 0.08 0.05 0.06 0.08 0.04 0.04 0.05 0.05 0.01 0.01 0.01 0.01 0.01 0.04 0.09 0.17 0.26 0.44 0.68 0.74 0.57 0.43 0.33 0.23 0.17 0.13 0.10 0.07 0.06 0.06 0.07 0.07 0.05 0.05 0.04 0.03 0.03 0.06 0.10 0.11
0.04 0.07 0.05 0.04 0.05 0.08 0.07 0.07 0.10 0.07 0.07 0.02 0.01 0.01 0.01 0.03 0.04 0.04 0.09 0.20 0.26 0.35 0.53 0.63 0.65 0.57 0.38 0.23 0.14 0.08 0.06 0.05 0.05 0.06 0.07 0.06 0.04 0.03 0.03 0.04 0.07 0.07 0.08
0.04 0.08 0.07 0.05 0.11 0.14 0.11 0.09 0.07 0.06 0.07 0.04 0.03 0.01 0.00 0.01 0.03 0.02 0.02 0.04 0.05 0.06 0.09 0.14 0.19 0.30 0.36 0.33 0.24 0.13 0.08 0.05 0.04 0.04 0.03 0.02 0.02 0.03 0.04 0.03 0.03 0.04 0.06
0.09 0.11 0.10 0.06 0.09 0.17 0.16 0.11 0.09 0.11 0.06 0.05 0.03 0.02 0.00 0.00 0.00 0.01 0.01 0.00 0.00 0.00 0.01 0.01 0.02 0.03 0.08 0.15 0.23 0.21 0.16 0.09 0.05 0.03 0.02 0.02 0.02 0.03 0.03 0.03 0.02 0.04 0.05
0.20 0.17 0.14 0.09 0.09 0.18 0.24 0.17 0.19 0.16 0.14 0.11 0.07 0.04 0.01 0.00 0.00 0.00 0.00 0.00 0.00 0.00 0.00 0.00 0.00 0.00 0.01 0.01 0.04 0.10 0.14 0.11 0.07 0.05 0.04 0.02 0.01 0.02 0.02 0.02 0.03 0.03 0.04
0.35 0.30 0.21 0.21 0.19 0.23 0.33 0.33 0.37 0.33 0.24 0.13 0.20 0.20 0.07 0.02 0.00 0.00 0.00 0.00 0.00 0.00 0.00 0.00 0.00 0.00 0.00 0.00 0.00 0.02 0.04 0.07 0.06 0.05 0.04 0.03 0.02 0.02 0.02 0.02 0.02 0.04 0.03
0.53 0.45 0.35 0.38 0.30 0.36 0.54 0.52 0.50 0.45 0.33 0.20 0.30 0.41 0.22 0.09 0.03 0.00 0.00 0.00 0.00 0.00 0.00 0.00 0.00 0.00 0.00 0.00 0.00 0.00 0.00 0.03 0.06 0.05 0.04 0.03 0.02 0.02 0.02 0.02 0.04 0.06 0.04
0.77 0.69 0.62 0.58 0.48 0.44 0.60 0.66 0.63 0.55 0.44 0.29 0.26 0.32 0.32 0.26 0.11 0.01 0.00 0.00 0.00 0.00 0.00 0.00 0.00 0.00 0.00 0.00 0.00 0.00 0.00 0.00 0.03 0.05 0.05 0.03 0.03 0.03 0.02 0.02 0.06 0.07 0.03
0.81 0.82 0.80 0.78 0.63 0.48 0.50 0.59 0.64 0.60 0.57 0.42 0.31 0.25 0.21 0.23 0.18 0.08 0.02 0.00 0.00 0.00 0.00 0.00 0.00 0.00 0.00 0.00 0.00 0.00 0.00 0.00 0.01 0.03 0.04 0.04 0.05 0.04 0.03 0.04 0.07 0.07 0.05
0.68 0.67 0.73 0.79 0.72 0.60 0.58 0.66 0.71 0.72 0.59 0.48 0.37 0.37 0.39 0.37 0.24 0.17 0.13 0.05 0.01 0.00 0.00 0.00 0.00 0.00 0.00 0.00 0.00 0.00 0.00 0.00 0.00 0.01 0.02 0.04 0.05 0.06 0.06 0.06 0.06 0.06 0.08
0.64 0.58 0.63 0.70 0.76 0.71 0.67 0.67 0.72 0.72 0.68 0.66 0.53 0.40 0.43 0.46 0.44 0.35 0.24 0.16 0.08 0.02 0.00 0.00 0.00 0.00 0.00 0.00 0.00 0.00 0.00 0.00 0.00 0.01 0.01 0.02 0.03 0.05 0.07 0.08 0.07 0.06 0.07
0.65 0.64 0.62 0.68 0.74 0.74 0.78 0.84 0.79 0.71 0.68 0.68 0.61 0.53 0.52 0.46 0.36 0.41 0.35 0.23 0.18 0.10 0.03 0.00 0.00 0.00 0.00 0.00 0.00 0.00 0.00 0.00 0.00 0.00 0.01 0.01 0.02 0.03 0.06 0.11 0.15 0.16 0.22
0.46 0.48 0.53 0.62 0.71 0.75 0.80 0.85 0.84 0.79 0.73 0.68 0.67 0.66 0.69 0.67 0.51 0.44 0.43 0.38 0.31 0.23 0.14 0.05 0.02 0.00 0.00 0.00 0.00 0.00 0.00 0.00 0.00 0.00 0.00 0.01 0.01 0.02 0.04 0.07 0.12 0.19 0.39
0.27 0.27 0.34 0.45 0.56 0.64 0.70 0.74 0.77 0.79 0.74 0.67 0.67 0.67 0.65 0.66 0.61 0.50 0.41 0.39 0.40 0.35 0.32 0.24 0.10 0.03 0.01 0.00 0.00 0.00 0.00 0.00 0.00 0.00 0.00 0.00 0.01 0.01 0.02 0.02 0.03 0.04 0.09
0.23 0.27 0.30 0.35 0.41 0.50 0.60 0.65 0.69 0.73 0.68 0.61 0.60 0.60 0.59 0.60 0.63 0.59 0.53 0.45 0.40 0.38 0.36 0.29 0.16 0.07 0.03 0.02 0.01 0.00 0.00 0.00 0.00 0.00 0.00 0.00 0.01 0.01 0.01 0.01 0.01 0.01 0.01
0.30 0.25 0.27 0.36 0.35 0.38 0.45 0.55 0.67 0.77 0.70 0.64 0.55 0.53 0.58 0.59 0.71 0.74 0.70 0.58 0.49 0.43 0.37 0.29 0.15 0.09 0.05 0.03 0.02 0.01 0.00 0.00 0.00 0.00 0.00 0.00 0.01 0.01 0.00 0.00 0.00 0.00 0.00
0.16 0.16 0.20 0.26 0.29 0.35 0.41 0.50 0.61 0.68 0.68 0.61 0.53 0.48 0.49 0.53 0.62 0.71 0.78 0.66 0.56 0.46 0.44 0.38 0.18 0.10 0.06 0.04 0.02 0.01 0.00 0.00 0.00 0.00 0.00 0.00 0.01 0.01 0.01 0.00 0.00 0.00 0.00
0.09 0.13 0.18 0.23 0.25 0.29 0.37 0.42 0.47 0.49 0.44 0.42 0.41 0.39 0.42 0.44 0.48 0.55 0.62 0.62 0.52 0.42 0.42 0.44 0.28 0.14 0.08 0.05 0.03 0.01 0.00 0.00 0.00 0.00 0.00 0.00 0.00 0.01 0.01 0.00 0.00 0.00 0.00
0.05 0.07 0.11 0.13 0.18 0.22 0.26 0.30 0.32 0.37 0.33 0.26 0.23 0.23 0.27 0.28 0.29 0.35 0.44 0.47 0.49 0.45 0.42 0.43 0.34 0.19 0.12 0.08 0.05 0.02 0.01 0.00 0.00 0.00 0.00 0.00 0.00 0.00 0.01 0.00 0.00 0.00 0.00
0.05 0.07 0.13 0.17 0.20 0.21 0.24 0.28 0.25 0.30 0.31 0.27 0.22 0.20 0.17 0.17 0.19 0.22 0.28 0.37 0.43 0.44 0.42 0.40 0.34 0.21 0.13 0.08 0.04 0.02 0.01 0.00 0.00 0.00 0.00 0.00 0.00 0.00 0.00 0.00 0.00 0.00 0.00
0.08 0.10 0.13 0.18 0.24 0.22 0.28 0.32 0.29 0.30 0.28 0.23 0.19 0.21 0.24 0.22 0.14 0.12 0.13 0.20 0.28 0.35 0.36 0.36 0.33 0.24 0.14 0.09 0.06 0.04 0.01 0.00 0.00 0.00 0.00 0.00 0.00 0.00 0.00 0.00 0.00 0.00 0.00
0.13 0.15 0.16 0.20 0.27 0.34 0.34 0.27 0.30 0.30 0.26 0.21 0.17 0.17 0.22 0.24 0.27 0.23 0.17 0.15 0.14 0.21 0.32 0.38 0.36 0.31 0.33 0.21 0.11 0.05 0.02 0.01 0.01 0.00 0.00 0.00 0.00 0.00 0.00 0.00 0.00 0.00 0.00
0.18 0.20 0.21 0.23 0.26 0.34 0.31 0.27 0.35 0.34 0.32 0.31 0.25 0.21 0.21 0.21 0.23 0.32 0.37 0.31 0.25 0.26 0.38 0.28 0.26 0.41 0.43 0.33 0.20 0.12 0.08 0.05 0.03 0.01 0.00 0.00 0.00 0.00 0.00 0.00 0.00 0.00 0.00
0.26 0.24 0.22 0.23 0.27 0.30 0.30 0.24 0.25 0.30 0.31 0.29 0.26 0.23 0.24 0.25 0.31 0.36 0.38 0.35 0.32 0.33 0.55 0.57 0.53 0.49 0.43 0.34 0.27 0.22 0.14 0.08 0.04 0.02 0.01 0.00 0.00 0.00 0.00 0.00 0.00 0.00 0.00
0.37 0.33 0.29 0.26 0.28 0.28 0.33 0.19 0.18 0.21 0.25 0.31 0.31 0.26 0.32 0.30 0.31 0.27 0.23 0.26 0.28 0.34 0.40 0.41 0.40 0.37 0.30 0.26 0.22 0.19 0.17 0.13 0.08 0.04 0.01 0.01 0.00 0.00 0.00 0.00 0.00 0.00 0.00

GEFSMA_prec_meanprecacc_036.txt.gz
Total_Precipitation_Accumulation
0.05 0.07 0.08 0.14 0.10 0.04 0.05 0.08 0.03 0.03 0.04 0.01 0.03 0.04 0.02 0.02 0.06 0.10 0.14 0.30 0.52 0.58 0.44 0.30 0.20 0.15 0.13 0.13 0.14 0.12 0.10 0.10 0.10 0.09 0.08 0.06 0.05 0.04 0.03 0.02 0.05 0.07 0.07
0.03 0.07 0.06 0.08 0.05 0.06 0.08 0.04 0.04 0.05 0.05 0.01 0.01 0.01 0.01 0.01 0.04 0.09 0.17 0.28 0.47 0.72 0.78 0.60 0.45 0.34 0.25 0.19 0.16 0.15 0.12 0.10 0.10 0.10 0.10 0.06 0.05 0.04 0.03 0.03 0.07 0.10 0.11
0.04 0.09 0.06 0.04 0.06 0.08 0.07 0.07 0.10 0.07 0.07 0.02 0.01 0.01 0.01 0.03 0.04 0.04 0.09 0.21 0.28 0.38 0.58 0.68 0.68 0.59 0.39 0.25 0.17 0.11 0.09 0.09 0.09 0.09 0.09 0.07 0.04 0.03 0.03 0.04 0.07 0.07 0.08
0.05 0.11 0.10 0.07 0.13 0.15 0.11 0.10 0.07 0.06 0.07 0.04 0.03 0.01 0.00 0.01 0.03 0.02 0.03 0.04 0.05 0.07 0.12 0.19 0.25 0.35 0.40 0.35 0.26 0.15 0.10 0.07 0.06 0.06 0.05 0.04 0.03 0.04 0.04 0.04 0.04 0.04 0.06
0.16 0.18 0.18 0.13 0.13 0.20 0.18 0.13 0.09 0.11 0.06 0.05 0.03 0.03 0.01 0.00 0.01 0.01 0.01 0.01 0.00 0.01 0.02 0.03 0.05 0.08 0.13 0.18 0.24 0.23 0.17 0.11 0.07 0.05 0.04 0.03 0.02 0.04 0.04 0.03 0.03 0.04 0.05
0.32 0.30 0.30 0.26 0.22 0.25 0.28 0.20 0.21 0.18 0.15 0.12 0.08 0.05 0.02 0.01 0.00 0.00 0.00 0.00 0.00 0.00 0.00 0.00 0.01 0.01 0.02 0.04 0.07 0.12 0.15 0.12 0.08 0.06 0.05 0.03 0.02 0.03 0.03 0.03 0.04 0.04 0.04
0.47 0.43 0.35 0.40 0.39 0.37 0.43 0.40 0.42 0.37 0.27 0.15 0.22 0.21 0.08 0.02 0.01 0.01 0.00 0.00 0.00 0.00 0.00 0.00 0.00 0.00 0.00 0.00 0.01 0.03 0.06 0.08 0.07 0.06 0.05 0.04 0.02 0.03 0.03 0.03 0.05 0.06 0.04
0.65 0.57 0.48 0.53 0.49 0.58 0.73 0.66 0.61 0.55 0.40 0.25 0.34 0.44 0.23 0.10 0.03 0.01 0.01 0.00 0.00 0.00 0.00 0.00 0.00 0.00 0.00 0.00 0.00 0.00 0.01 0.03 0.06 0.06 0.04 0.03 0.03 0.03 0.02 0.03 0.05 0.08 0.05
0.88 0.81 0.76 0.72 0.64 0.65 0.82 0.87 0.83 0.74 0.62 0.44 0.38 0.40 0.36 0.28 0.12 0.02 0.01 0.00 0.00 0.00 0.00 0.00 0.00 0.00 0.00 0.00 0.00 0.00 0.00 0.00 0.03 0.05 0.05 0.04 0.03 0.03 0.02 0.03 0.07 0.08 0.04
0.89 0.91 0.90 0.89 0.78 0.68 0.75 0.89 0.94 0.92 0.91 0.74 0.55 0.40 0.30 0.27 0.20 0.09 0.02 0.00 0.00 0.00 0.00 0.00 0.00 0.00 0.00 0.00 0.00 0.00 0.00 0.00 0.01 0.03 0.04 0.05 0.05 0.05 0.04 0.04 0.08 0.09 0.06
0.74 0.74 0.80 0.89 0.84 0.74 0.77 0.94 1.04 1.11 1.01 0.88 0.71 0.63 0.56 0.46 0.27 0.19 0.14 0.05 0.01 0.00 0.00 0.00 0.00 0.00 0.00 0.00 0.00 0.00 0.00 0.00 0.00 0.01 0.02 0.04 0.06 0.07 0.07 0.07 0.07 0.07 0.09
0.68 0.62 0.68 0.75 0.82 0.79 0.78 0.83 0.95 1.03 1.07 1.07 0.92 0.73 0.67 0.61 0.52 0.40 0.27 0.18 0.09 0.02 0.00 0.00 0.00 0.00 0.00 0.00 0.00 0.00 0.00 0.00 0.00 0.01 0.01 0.02 0.03 0.06 0.08 0.10 0.08 0.07 0.08
0.67 0.66 0.64 0.70 0.77 0.78 0.84 0.93 0.92 0.90 0.98 1.02 0.98 0.88 0.80 0.65 0.48 0.50 0.42 0.28 0.20 0.10 0.03 0.00 0.00 0.00 0.00 0.00 0.00 0.00 0.00 0.00 0.00 0.00 0.01 0.01 0.02 0.03 0.06 0.13 0.17 0.19 0.25
0.47 0.48 0.54 0.62 0.73 0.78 0.84 0.89 0.91 0.91 0.92 0.92 0.95 0.94 0.93 0.87 0.66 0.55 0.53 0.48 0.38 0.26 0.14 0.05 0.02 0.01 0.00 0.00 0.00 0.00 0.00 0.00 0.00 0.00 0.00 0.01 0.01 0.02 0.04 0.07 0.13 0.20 0.40
0.27 0.27 0.34 0.45 0.57 0.66 0.73 0.77 0.81 0.87 0.87 0.83 0.86 0.87 0.84 0.85 0.79 0.63 0.53 0.50 0.51 0.43 0.35 0.24 0.11 0.04 0.02 0.00 0.00 0.00 0.00 0.00 0.00 0.00 0.00 0.00 0.01 0.01 0.02 0.02 0.03 0.04 0.10
0.23 0.27 0.30 0.35 0.41 0.51 0.61 0.66 0.71 0.76 0.72 0.67 0.67 0.69 0.72 0.78 0.83 0.77 0.69 0.59 0.54 0.51 0.44 0.33 0.18 0.08 0.05 0.03 0.01 0.00 0.00 0.00 0.00 0.00 0.00 0.00 0.01 0.01 0.01 0.01 0.01 0.01 0.01
0.30 0.25 0.27 0.36 0.35 0.38 0.46 0.55 0.68 0.78 0.72 0.67 0.60 0.59 0.66 0.72 0.87 0.92 0.86 0.73 0.65 0.58 0.50 0.39 0.20 0.12 0.09 0.06 0.04 0.02 0.00 0.00 0.00 0.00 0.00 0.00 0.01 0.01 0.00 0.00 0.00 0.00 0.00
0.17 0.17 0.21 0.26 0.30 0.35 0.41 0.51 0.61 0.68 0.69 0.62 0.55 0.51 0.54 0.61 0.74 0.86 0.95 0.85 0.75 0.65 0.60 0.53 0.30 0.17 0.12 0.09 0.05 0.02 0.01 0.00 0.00 0.00 0.00 0.00 0.01 0.01 0.01 0.00 0.00 0.00 0.00
0.10 0.14 0.19 0.24 0.26 0.30 0.37 0.42 0.47 0.49 0.44 0.42 0.42 0.41 0.45 0.48 0.55 0.65 0.77 0.83 0.77 0.67 0.64 0.64 0.46 0.26 0.16 0.11 0.07 0.03 0.01 0.01 0.00 0.00 0.00 0.00 0.00 0.01 0.01 0.00 0.00 0.00 0.00
0.07 0.09 0.13 0.15 0.20 0.23 0.28 0.30 0.32 0.38 0.34 0.27 0.23 0.24 0.28 0.31 0.35 0.44 0.54 0.63 0.71 0.72 0.71 0.69 0.57 0.38 0.25 0.16 0.09 0.05 0.04 0.02 0.01 0.00 0.00 0.00 0.00 0.00 0.01 0.00 0.00 0.00 0.00
0.08 0.09 0.15 0.20 0.23 0.24 0.27 0.29 0.26 0.31 0.31 0.27 0.23 0.21 0.18 0.19 0.22 0.28 0.37 0.51 0.60 0.64 0.66 0.66 0.59 0.44 0.31 0.20 0.11 0.07 0.04 0.04 0.02 0.00 0.00 0.00 0.00 0.00 0.00 0.00 0.00 0.00 0.00
0.13 0.14 0.16 0.21 0.28 0.26 0.34 0.36 0.32 0.31 0.29 0.23 0.20 0.22 0.25 0.22 0.16 0.14 0.17 0.27 0.38 0.46 0.51 0.54 0.54 0.44 0.31 0.23 0.17 0.11 0.05 0.02 0.01 0.01 0.00 0.00 0.00 0.00 0.00 0.00 0.00 0.00 0.00
0.17 0.19 0.20 0.23 0.30 0.39 0.40 0.32 0.35 0.33 0.28 0.22 0.17 0.18 0.23 0.24 0.28 0.24 0.19 0.18 0.19 0.26 0.39 0.48 0.48 0.45 0.47 0.35 0.23 0.14 0.08 0.04 0.02 0.02 0.01 0.00 0.00 0.00 0.00 0.00 0.00 0.00 0.00
0.21 0.22 0.24 0.26 0.28 0.38 0.37 0.32 0.43 0.40 0.36 0.33 0.26 0.22 0.22 0.22 0.24 0.33 0.38 0.32 0.26 0.28 0.41 0.31 0.30 0.47 0.51 0.42 0.30 0.21 0.16 0.12 0.07 0.03 0.01 0.00 0.00 0.00 0.00 0.00 0.00 0.00 0.00
0.28 0.26 0.24 0.25 0.28 0.33 0.35 0.29 0.32 0.35 0.38 0.34 0.29 0.26 0.25 0.26 0.33 0.38 0.38 0.36 0.33 0.34 0.55 0.58 0.55 0.51 0.46 0.38 0.32 0.29 0.21 0.13 0.08 0.05 0.03 0.01 0.00 0.00 0.00 0.00 0.00 0.00 0.00
0.38 0.33 0.30 0.27 0.29 0.30 0.37 0.23 0.25 0.28 0.33 0.38 0.36 0.29 0.35 0.32 0.33 0.29 0.24 0.27 0.28 0.35 0.40 0.41 0.41 0.38 0.32 0.28 0.26 0.24 0.24 0.19 0.12 0.08 0.04 0.03 0.01 0.01 0.00 0.00 0.00 0.00 0.00

GEFSMA_prec_meanprecacc_042.txt.gz
Total_Precipitation_Accumulation
0.05 0.07 0.08 0.14 0.10 0.04 0.05 0.08 0.03 0.03 0.05 0.02 0.03 0.04 0.02 0.02 0.06 0.10 0.15 0.32 0.54 0.62 0.47 0.32 0.22 0.16 0.15 0.16 0.17 0.16 0.15 0.14 0.14 0.13 0.12 0.08 0.07 0.06 0.03 0.02 0.05 0.07 0.07
0.03 0.07 0.06 0.08 0.05 0.06 0.08 0.04 0.04 0.05 0.06 0.01 0.01 0.02 0.01 0.01 0.04 0.09 0.18 0.29 0.49 0.74 0.82 0.63 0.49 0.36 0.26 0.20 0.18 0.18 0.17 0.14 0.13 0.13 0.13 0.09 0.06 0.05 0.04 0.03 0.07 0.10 0.11
0.04 0.09 0.06 0.04 0.06 0.08 0.07 0.07 0.10 0.07 0.07 0.02 0.01 0.01 0.02 0.03 0.04 0.04 0.09 0.21 0.29 0.39 0.61 0.73 0.72 0.62 0.42 0.26 0.19 0.14 0.12 0.12 0.12 0.11 0.11 0.09 0.06 0.04 0.03 0.05 0.07 0.08 0.08
0.06 0.12 0.13 0.10 0.13 0.15 0.11 0.10 0.07 0.06 0.08 0.05 0.04 0.03 0.01 0.02 0.03 0.02 0.03 0.04 0.06 0.08 0.14 0.22 0.28 0.38 0.43 0.38 0.28 0.17 0.12 0.09 0.08 0.08 0.07 0.06 0.05 0.05 0.05 0.04 0.04 0.05 0.06
0.18 0.24 0.29 0.22 0.17 0.22 0.20 0.14 0.10 0.12 0.08 0.08 0.06 0.05 0.02 0.01 0.01 0.01 0.01 0.01 0.01 0.02 0.04 0.05 0.07 0.11 0.17 0.22 0.27 0.25 0.19 0.12 0.09 0.08 0.06 0.04 0.03 0.04 0.04 0.04 0.03 0.04 0.06
0.39 0.43 0.48 0.44 0.33 0.33 0.34 0.24 0.23 0.21 0.19 0.17 0.11 0.07 0.03 0.01 0.00 0.00 0.00 0.00 0.00 0.00 0.00 0.01 0.02 0.03 0.04 0.07 0.09 0.15 0.18 0.14 0.10 0.08 0.06 0.04 0.03 0.04 0.04 0.04 0.04 0.04 0.04
0.56 0.61 0.56 0.64 0.59 0.54 0.58 0.49 0.48 0.42 0.31 0.19 0.27 0.26 0.10 0.03 0.01 0.01 0.00 0.00 0.00 0.00 0.00 0.00 0.01 0.01 0.01 0.01 0.02 0.05 0.08 0.10 0.09 0.07 0.06 0.05 0.03 0.04 0.04 0.04 0.05 0.06 0.05
0.76 0.71 0.67 0.76 0.73 0.80 0.94 0.82 0.74 0.66 0.48 0.29 0.41 0.52 0.29 0.13 0.04 0.01 0.01 0.00 0.00 0.00 0.00 0.00 0.00 0.00 0.00 0.00 0.00 0.01 0.02 0.05 0.07 0.07 0.05 0.04 0.03 0.03 0.03 0.03 0.06 0.09 0.06
1.03 0.95 0.90 0.90 0.84 0.84 1.03 1.09 1.00 0.90 0.76 0.53 0.44 0.48 0.44 0.36 0.17 0.04 0.01 0.01 0.01 0.00 0.00 0.00 0.00 0.00 0.00 0.00 0.00 0.00 0.00 0.01 0.04 0.06 0.05 0.04 0.04 0.04 0.03 0.04 0.08 0.09 0.05
1.01 1.03 1.00 1.00 0.91 0.81 0.91 1.06 1.09 1.07 1.07 0.87 0.66 0.49 0.39 0.36 0.28 0.14 0.04 0.01 0.01 0.01 0.01 0.00 0.00 0.00 0.00 0.00 0.00 0.00 0.00 0.00 0.01 0.03 0.04 0.05 0.06 0.06 0.05 0.05 0.09 0.09 0.06
0.82 0.81 0.87 0.96 0.91 0.82 0.86 1.04 1.14 1.21 1.11 1.01 0.85 0.76 0.69 0.57 0.36 0.26 0.20 0.07 0.02 0.01 0.01 0.00 0.00 0.00 0.00 0.00 0.00 0.00 0.00 0.00 0.00 0.01 0.02 0.04 0.07 0.08 0.08 0.08 0.08 0.08 0.10
0.75 0.68 0.72 0.79 0.86 0.82 0.81 0.87 1.01 1.09 1.14 1.16 1.03 0.85 0.80 0.74 0.64 0.51 0.35 0.22 0.12 0.03 0.00 0.00 0.00 0.00 0.00 0.00 0.00 0.00 0.00 0.00 0.00 0.01 0.01 0.02 0.04 0.07 0.09 0.11 0.10 0.08 0.09
0.72 0.70 0.67 0.72 0.79 0.80 0.86 0.95 0.94 0.93 1.03 1.08 1.07 0.99 0.92 0.78 0.62 0.63 0.52 0.35 0.25 0.12 0.03 0.00 0.00 0.00 0.00 0.00 0.00 0.00 0.00 0.00 0.00 0.00 0.01 0.01 0.02 0.03 0.07 0.14 0.19 0.20 0.26
0.50 0.50 0.55 0.64 0.74 0.79 0.84 0.90 0.92 0.93 0.94 0.95 1.00 1.01 1.02 0.97 0.76 0.64 0.62 0.58 0.47 0.32 0.18 0.06 0.02 0.01 0.00 0.00 0.00 0.00 0.00 0.00 0.00 0.00 0.00 0.01 0.02 0.02 0.04 0.08 0.14 0.21 0.41
0.29 0.28 0.35 0.46 0.57 0.66 0.73 0.77 0.81 0.87 0.88 0.85 0.88 0.90 0.87 0.90 0.85 0.71 0.62 0.60 0.62 0.52 0.43 0.30 0.12 0.04 0.02 0.00 0.00 0.00 0.00 0.00 0.00 0.00 0.00 0.00 0.01 0.02 0.02 0.02 0.03 0.04 0.10
0.24 0.27 0.30 0.35 0.41 0.51 0.62 0.66 0.71 0.76 0.72 0.68 0.69 0.71 0.75 0.82 0.88 0.84 0.79 0.71 0.66 0.62 0.55 0.41 0.22 0.09 0.05 0.03 0.01 0.00 0.00 0.00 0.00 0.00 0.00 0.00 0.01 0.01 0.01 0.01 0.01 0.01 0.01
0.30 0.26 0.27 0.36 0.35 0.38 0.46 0.55 0.68 0.78 0.73 0.68 0.61 0.60 0.69 0.76 0.92 0.98 0.93 0.82 0.75 0.68 0.60 0.49 0.27 0.15 0.10 0.07 0.05 0.02 0.01 0.00 0.00 0.00 0.00 0.00 0.01 0.01 0.00 0.00 0.00 0.00 0.00
0.17 0.17 0.21 0.27 0.30 0.35 0.41 0.51 0.61 0.68 0.70 0.62 0.56 0.52 0.56 0.63 0.78 0.91 1.01 0.91 0.83 0.75 0.72 0.65 0.40 0.24 0.17 0.13 0.09 0.04 0.02 0.01 0.00 0.00 0.00 0.00 0.01 0.01 0.01 0.00 0.00 0.00 0.00
0.11 0.15 0.19 0.24 0.27 0.30 0.38 0.43 0.47 0.49 0.44 0.42 0.42 0.41 0.46 0.51 0.58 0.71 0.83 0.91 0.86 0.77 0.78 0.80 0.63 0.40 0.26 0.17 0.12 0.07 0.03 0.02 0.02 0.01 0.00 0.00 0.00 0.01 0.01 0.00 0.00 0.00 0.00
0.08 0.10 0.14 0.16 0.20 0.24 0.28 0.31 0.33 0.38 0.34 0.27 0.24 0.24 0.29 0.32 0.38 0.49 0.61 0.72 0.82 0.83 0.84 0.86 0.78 0.55 0.38 0.26 0.16 0.11 0.09 0.05 0.02 0.01 0.01 0.01 0.00 0.01 0.01 0.00 0.00 0.00 0.00
0.11 0.11 0.17 0.22 0.25 0.26 0.29 0.31 0.27 0.32 0.32 0.28 0.23 0.21 0.18 0.19 0.24 0.32 0.43 0.60 0.71 0.79 0.84 0.87 0.83 0.70 0.53 0.38 0.25 0.18 0.13 0.10 0.06 0.02 0.01 0.01 0.00 0.00 0.00 0.00 0.00 0.00 0.00
0.15 0.16 0.19 0.24 0.31 0.29 0.37 0.38 0.33 0.32 0.31 0.25 0.21 0.23 0.25 0.23 0.17 0.15 0.18 0.30 0.43 0.58 0.69 0.74 0.76 0.67 0.55 0.47 0.40 0.30 0.19 0.11 0.07 0.05 0.02 0.01 0.01 0.00 0.00 0.00 0.00 0.00 0.00
0.19 0.21 0.23 0.27 0.35 0.44 0.43 0.34 0.37 0.35 0.31 0.25 0.19 0.19 0.23 0.24 0.29 0.25 0.20 0.18 0.19 0.29 0.44 0.57 0.61 0.61 0.66 0.54 0.42 0.32 0.24 0.18 0.13 0.09 0.06 0.03 0.01 0.01 0.00 0.00 0.00 0.00 0.00
0.23 0.24 0.25 0.27 0.31 0.41 0.39 0.34 0.45 0.43 0.40 0.36 0.28 0.23 0.23 0.22 0.24 0.34 0.39 0.32 0.27 0.29 0.42 0.34 0.35 0.54 0.60 0.54 0.44 0.35 0.32 0.26 0.19 0.12 0.08 0.05 0.03 0.02 0.01 0.00 0.00 0.00 0.00
0.28 0.27 0.25 0.26 0.30 0.34 0.37 0.31 0.35 0.41 0.45 0.41 0.33 0.28 0.27 0.27 0.35 0.39 0.39 0.37 0.35 0.35 0.56 0.59 0.56 0.52 0.48 0.41 0.38 0.39 0.33 0.26 0.21 0.16 0.13 0.08 0.05 0.04 0.02 0.01 0.00 0.00 0.00
0.38 0.33 0.30 0.27 0.30 0.30 0.39 0.25 0.28 0.34 0.42 0.47 0.41 0.33 0.41 0.39 0.39 0.32 0.25 0.30 0.33 0.37 0.41 0.42 0.42 0.39 0.33 0.29 0.28 0.29 0.33 0.30 0.24 0.20 0.16 0.12 0.09 0.08 0.06 0.03 0.02 0.01 0.01

GEFSMA_prec_meanprecacc_048.txt.gz
Total_Precipitation_Accumulation
0.05 0.07 0.08 0.14 0.10 0.04 0.05 0.08 0.03 0.03 0.05 0.02 0.03 0.04 0.02 0.02 0.06 0.10 0.16 0.32 0.54 0.62 0.47 0.32 0.22 0.16 0.16 0.17 0.19 0.18 0.17 0.17 0.16 0.17 0.15 0.10 0.09 0.08 0.04 0.02 0.05 0.07 0.07
0.03 0.07 0.06 0.08 0.05 0.06 0.08 0.04 0.04 0.05 0.06 0.01 0.01 0.02 0.01 0.01 0.04 0.09 0.20 0.30 0.49 0.75 0.82 0.64 0.49 0.37 0.26 0.21 0.20 0.20 0.19 0.16 0.15 0.16 0.15 0.10 0.07 0.06 0.05 0.03 0.07 0.10 0.11
0.05 0.09 0.06 0.05 0.06 0.08 0.07 0.07 0.10 0.07 0.07 0.02 0.01 0.01 0.02 0.03 0.04 0.04 0.09 0.23 0.31 0.40 0.62 0.73 0.72 0.62 0.42 0.27 0.20 0.15 0.14 0.14 0.14 0.13 0.13 0.10 0.07 0.05 0.04 0.05 0.07 0.08 0.08
0.06 0.13 0.15 0.11 0.14 0.15 0.11 0.10 0.07 0.06 0.08 0.05 0.04 0.03 0.01 0.02 0.03 0.02 0.03 0.04 0.07 0.09 0.15 0.23 0.28 0.38 0.44 0.39 0.30 0.18 0.13 0.11 0.10 0.10 0.09 0.07 0.06 0.05 0.05 0.05 0.05 0.05 0.07
0.20 0.26 0.32 0.25 0.19 0.23 0.20 0.14 0.10 0.13 0.09 0.09 0.06 0.06 0.02 0.01 0.01 0.01 0.01 0.01 0.01 0.03 0.06 0.05 0.07 0.11 0.18 0.23 0.28 0.26 0.20 0.14 0.10 0.09 0.07 0.05 0.04 0.05 0.06 0.05 0.03 0.05 0.06
0.41 0.47 0.53 0.47 0.36 0.36 0.36 0.25 0.24 0.23 0.21 0.19 0.12 0.08 0.04 0.01 0.00 0.00 0.00 0.01 0.01 0.00 0.01 0.01 0.03 0.04 0.04 0.07 0.10 0.15 0.19 0.15 0.10 0.09 0.07 0.05 0.04 0.04 0.05 0.05 0.05 0.05 0.05
0.62 0.70 0.65 0.73 0.69 0.62 0.63 0.52 0.54 0.51 0.37 0.22 0.34 0.34 0.14 0.04 0.02 0.01 0.00 0.00 0.00 0.00 0.00 0.00 0.02 0.03 0.02 0.01 0.02 0.05 0.08 0.10 0.09 0.07 0.06 0.05 0.04 0.05 0.05 0.05 0.06 0.08 0.06
0.91 0.83 0.82 0.93 0.89 0.94 1.05 0.90 0.88 0.82 0.59 0.36 0.54 0.68 0.39 0.20 0.07 0.02 0.01 0.00 0.00 0.00 0.00 0.00 0.00 0.01 0.01 0.01 0.01 0.01 0.02 0.05 0.08 0.07 0.05 0.04 0.04 0.04 0.04 0.05 0.08 0.11 0.08
1.23 1.11 1.03 1.07 1.02 1.03 1.21 1.25 1.15 1.06 0.93 0.66 0.55 0.62 0.57 0.49 0.29 0.07 0.02 0.01 0.01 0.01 0.00 0.00 0.00 0.00 0.00 0.01 0.00 0.00 0.00 0.01 0.04 0.06 0.05 0.04 0.04 0.04 0.03 0.04 0.08 0.10 0.06
1.24 1.21 1.16 1.16 1.08 1.00 1.09 1.20 1.20 1.22 1.24 1.01 0.79 0.61 0.46 0.45 0.41 0.24 0.08 0.02 0.02 0.02 0.01 0.01 0.00 0.00 0.00 0.00 0.00 0.00 0.00 0.00 0.01 0.03 0.05 0.05 0.06 0.06 0.05 0.05 0.09 0.10 0.07
1.06 1.03 1.09 1.16 1.10 1.01 1.02 1.16 1.25 1.35 1.27 1.17 1.01 0.90 0.80 0.68 0.44 0.39 0.32 0.14 0.06 0.03 0.03 0.02 0.01 0.00 0.00 0.00 0.00 0.00 0.00 0.00 0.00 0.01 0.02 0.04 0.07 0.08 0.09 0.09 0.09 0.09 0.10
0.95 0.86 0.89 0.96 1.01 0.99 0.97 1.03 1.14 1.22 1.26 1.28 1.17 1.00 0.93 0.85 0.76 0.67 0.49 0.33 0.20 0.06 0.03 0.02 0.02 0.01 0.01 0.00 0.00 0.00 0.00 0.00 0.00 0.01 0.01 0.02 0.04 0.07 0.09 0.12 0.11 0.09 0.10
1.00 0.90 0.80 0.85 0.92 0.93 0.96 1.05 1.04 1.03 1.13 1.20 1.18 1.10 1.05 0.90 0.78 0.80 0.67 0.49 0.38 0.17 0.05 0.02 0.01 0.01 0.01 0.01 0.00 0.00 0.00 0.00 0.00 0.00 0.01 0.01 0.02 0.03 0.07 0.15 0.20 0.21 0.27
0.72 0.66 0.66 0.74 0.85 0.89 0.91 0.96 0.99 0.99 1.00 1.01 1.05 1.08 1.09 1.07 0.88 0.78 0.76 0.76 0.64 0.45 0.27 0.10 0.03 0.02 0.02 0.01 0.01 0.01 0.00 0.00 0.00 0.00 0.00 0.01 0.02 0.02 0.04 0.08 0.14 0.22 0.42
0.41 0.39 0.44 0.54 0.64 0.71 0.78 0.82 0.86 0.91 0.91 0.89 0.92 0.94 0.92 0.96 0.93 0.80 0.74 0.75 0.78 0.66 0.58 0.41 0.19 0.07 0.04 0.02 0.02 0.01 0.00 0.00 0.00 0.00 0.00 0.00 0.01 0.02 0.02 0.02 0.03 0.05 0.10
0.35 0.34 0.35 0.39 0.45 0.54 0.64 0.69 0.73 0.79 0.74 0.70 0.72 0.74 0.80 0.87 0.94 0.92 0.89 0.84 0.81 0.75 0.68 0.55 0.34 0.15 0.10 0.10 0.07 0.02 0.00 0.00 0.00 0.00 0.00 0.00 0.01 0.01 0.01 0.01 0.01 0.01 0.01
0.40 0.30 0.30 0.38 0.38 0.40 0.47 0.57 0.70 0.80 0.74 0.69 0.62 0.62 0.71 0.80 0.98 1.04 1.01 0.92 0.88 0.82 0.71 0.68 0.49 0.26 0.17 0.15 0.12 0.05 0.02 0.01 0.00 0.00 0.00 0.00 0.01 0.01 0.00 0.00 0.00 0.00 0.00
0.26 0.24 0.27 0.30 0.31 0.36 0.42 0.51 0.62 0.69 0.70 0.64 0.57 0.53 0.58 0.66 0.82 0.98 1.08 1.00 0.93 0.86 0.83 0.80 0.64 0.44 0.31 0.24 0.17 0.10 0.05 0.03 0.02 0.02 0.02 0.01 0.01 0.01 0.01 0.00 0.00 0.00 0.00
0.19 0.21 0.23 0.27 0.28 0.31 0.38 0.43 0.48 0.49 0.45 0.42 0.43 0.42 0.48 0.53 0.62 0.76 0.89 0.98 0.95 0.88 0.91 0.93 0.79 0.59 0.42 0.31 0.24 0.19 0.11 0.09 0.07 0.04 0.04 0.02 0.01 0.01 0.01 0.00 0.00 0.00 0.00
0.16 0.17 0.18 0.19 0.23 0.27 0.31 0.33 0.34 0.39 0.35 0.27 0.24 0.24 0.30 0.34 0.41 0.54 0.68 0.81 0.92 0.95 0.97 0.99 0.91 0.70 0.51 0.37 0.27 0.25 0.25 0.19 0.15 0.10 0.05 0.03 0.02 0.01 0.01 0.00 0.00 0.00 0.00
0.15 0.16 0.22 0.26 0.29 0.30 0.34 0.35 0.30 0.33 0.33 0.28 0.24 0.22 0.19 0.20 0.25 0.35 0.47 0.66 0.79 0.90 0.98 1.02 0.99 0.85 0.68 0.53 0.39 0.33 0.31 0.32 0.28 0.20 0.13 0.08 0.05 0.03 0.02 0.02 0.01 0.01 0.00
0.18 0.20 0.23 0.30 0.38 0.34 0.44 0.44 0.37 0.34 0.32 0.26 0.22 0.24 0.26 0.24 0.18 0.15 0.18 0.30 0.45 0.63 0.79 0.90 0.94 0.85 0.72 0.62 0.55 0.47 0.38 0.31 0.29 0.25 0.20 0.17 0.12 0.08 0.07 0.06 0.05 0.04 0.02
0.22 0.25 0.27 0.34 0.44 0.53 0.50 0.37 0.39 0.37 0.33 0.27 0.21 0.22 0.26 0.26 0.30 0.26 0.22 0.20 0.21 0.30 0.46 0.62 0.70 0.72 0.77 0.66 0.53 0.43 0.36 0.32 0.30 0.28 0.24 0.20 0.15 0.12 0.09 0.08 0.06 0.05 0.03
0.26 0.27 0.29 0.32 0.36 0.48 0.45 0.36 0.47 0.46 0.45 0.40 0.31 0.26 0.27 0.27 0.29 0.39 0.43 0.36 0.31 0.32 0.44 0.36 0.39 0.60 0.65 0.61 0.52 0.45 0.42 0.37 0.29 0.24 0.20 0.19 0.17 0.13 0.08 0.06 0.05 0.04 0.03
0.31 0.30 0.28 0.29 0.32 0.37 0.39 0.33 0.37 0.47 0.54 0.48 0.37 0.33 0.33 0.35 0.47 0.47 0.43 0.43 0.42 0.40 0.59 0.61 0.57 0.54 0.49 0.42 0.40 0.43 0.41 0.36 0.31 0.26 0.21 0.17 0.16 0.16 0.13 0.10 0.08 0.06 0.04
0.40 0.35 0.32 0.29 0.31 0.32 0.40 0.25 0.30 0.41 0.50 0.56 0.50 0.42 0.53 0.50 0.51 0.39 0.29 0.38 0.44 0.45 0.45 0.46 0.46 0.43 0.36 0.32 0.30 0.32 0.40 0.40 0.34 0.32 0.28 0.22 0.20 0.19 0.16 0.12 0.10 0.08 0.06